SCP
0 0 0 0 0 0 0 0 0 0 0 0 0 0 0 0 0 0 0 0 0 0 0 0 0 0 0 0 0 0 0 0 0 0 0 0 0 0 0 0 0 0 0 0
0 0 0 0 0 0 0 0 0 0 0 0 0 0 0 0 0 0 0 0 0 0 0 0 0 0 0 0 0 0 0 0 0 0 0 0 0 0 0 0 0 0 0 0
0 0 0 0 0 0 0 0 0 0 0 0 0 0 0 0 0 0 0 0 0 0 0 0 0 0 0 0 0 0 0 0 0 0 0 0 0 0 0 0 0 0 0 0
0 0 0 0 0 0 0 0 0 0 0 0 0 0 0 0 0 0 0 0 0 0 0 0 0 0 0 0 0 0 0 0 0 0 0 0 0 0 0 0 0 0 0 0
0 0 0 0 0 0 0 0 0 0 0 0 0 0 0 0 0 0 0 0 0 0 0 0 0 0 0 0 0 0 0 0 0 0 0 0 0 0 0 0 0 0 0 0
0 0 0 0 0 0 0 0 0 0 0 0 0 0 0 0 0 0 0 0 0 0 0 0 0 0 0 0 0 0 0 0 0 0 0 0 0 0 0 0 0 0 0 0
0 0 0 0 0 0 0 0 0 0 0 0 0 0 0 0 0 0 0 0 0 0 0 0 0 0 0 0 0 0 0 0 0 0 0 0 0 0 0 0 0 0 0 0
0 0 0 0 0 0 0 0 0 0 0 0 0 0 0 0 0 0 0 0 0 0 0 0 0 0 0 0 0 0 0 0 0 0 0 0 0 0 0 0 0 0 0 0
0 0 0 0 0 0 0 0 0 0 0 0 0 0 0 0 0 0 0 0 0 0 0 0 0 0 0 0 0 0 0 0 0 0 0 0 0 0 0 0 0 0 0 0
0 0 0 0 0 0 0 0 0 0 0 0 0 0 0 0 0 0 0 0 0 0 0 0 0 0 0 0 0 0 0 0 0 0 0 0 0 0 0 0 0 0 0 0
0 0 0 0 0 0 0 0 0 0 0 0 0 0 0 0 0 0 0 0 0 0 0 0 0 0 0 0 0 0 0 0 0 0 0 0 0 0 0 0 0 0 0 0
0 0 0 0 0 0 0 0 0 0 0 0 0 0 0 0 0 0 0 0 0 0 0 0 0 0 0 0 0 0 0 0 0 0 0 0 0 0 0 0 0 0 0 0
0 0 0 0 0 0 0 0 0 0 0 0 0 0 0 0 0 0 0 0 0 0 0 0 0 0 0 0 0 0 0 0 0 0 0 0 0 0 0 0 0 0 0 0
0 0 0 0 0 0 0 0 0 0 0 0 0 0 0 0 0 0 0 0 0 0 0 0 0 0 0 0 0 0 0 0 0 0 0 0 0 0 0 0 0 0 0 0
0 0 0 0 0 0 0 0 0 0 0 0 0 0 0 0 0 0 0 0 0 0 0 0 0 0 0 0 0 0 0 0 0 0 0 0 0 0 0 0 0 0 0 0
0 0 0 0 0 0 0 0 0 0 0 0 0 0 0 0 0 0 0 0 0 0 0 0 0 0 0 0 0 0 0 0 0 0 0 0 0 0 0 0 0 0 0 0
0 0 0 0 0 0 0 0 0 0 0 0 0 0 0 0 0 0 0 0 0 0 0 0 0 0 0 0 0 0 0 0 0 0 0 0 0 0 0 0 0 0 0 0
0 0 0 0 0 0 0 0 0 0 0 0 0 0 0 0 0 0 0 0 0 0 0 0 0 0 0 0 0 0 0 0 0 0 0 0 0 0 0 0 0 0 0 0
0 0 0 0 0 0 0 0 0 0 0 0 0 0 0 0 0 0 0 0 0 0 0 0 0 0 0 0 0 0 0 0 0 0 0 0 0 0 0 0 0 0 0 0
0 0 0 0 0 0 0 0 0 0 0 0 0 0 0 0 0 0 0 0 0 0 0 0 0 0 0 0 0 0 0 0 0 0 0 0 0 0 0 0 0 0 0 0
0 0 0 0 0 0 0 0 0 0 0 0 0 0 0 0 0 0 0 0 0 0 0 0 0 0 0 0 0 0 0 0 0 0 0 0 0 0 0 0 0 0 0 0
0 0 0 0 0 0 0 0 0 0 0 0 0 0 0 0 0 0 0 0 0 0 0 0 0 0 0 0 0 0 0 0 0 0 0 0 0 0 0 0 0 0 0 0
0 0 0 0 0 0 0 0 0 0 0 0 0 0 0 0 0 0 0 0 0 0 0 0 0 0 0 0 0 0 0 0 0 0 0 0 0 0 0 0 0 0 0 0
0 0 0 0 0 0 0 0 0 0 0 0 0 0 0 0 0 0 0 0 0 0 0 0 0 0 0 0 0 0 0 0 0 0 0 0 0 0 0 0 0 0 0 0
0 0 0 0 0 0 0 0 0 0 0 0 0 0 0 0 0 0 0 0 0 0 0 0 0 0 0 0 0 0 0 0 0 0 0 0 0 0 0 0 0 0 0 0
0 0 0 0 0 0 0 0 0 0 0 0 0 0 0 0 0 0 0 0 0 0 0 0 0 0 0 0 0 0 0 0 0 0 0 0 0 0 0 0 0 0 0 0
0 0 0 0 0 0 0 0 0 0 0 0 0 0 0 0 0 0 0 0 0 0 0 0 0 0 0 0 0 0 0 0 0 0 0 0 0 0 0 0 0 0 0 0
Wind_Speed
9 8 7 7 5 5 5 5 5 3 1 3 3 3 4 3 2 2 3 4 3 3 3 2 2 1 1 1 2 2 2 2 2 2 2 1 1 1 1 1 1 0 0 0
9 8 8 7 6 5 5 5 4 2 0 5 5 3 4 3 2 1 3 3 3 3 3 2 1 1 1 1 2 2 2 2 2 2 2 1 1 1 0 1 1 1 0 0
9 9 8 6 5 4 3 3 3 2 1 4 4 3 3 3 2 2 3 3 2 3 2 1 1 0 1 1 1 2 1 1 1 1 1 1 1 1 0 0 0 0 1 0
8 8 8 3 1 1 0 2 3 2 4 4 3 4 3 3 2 3 3 2 2 2 1 0 0 1 1 1 2 2 2 2 2 2 1 1 1 1 0 1 1 1 1 0
7 8 6 4 2 2 2 1 2 2 4 4 3 4 4 4 3 3 3 2 2 1 1 1 0 0 1 1 2 2 2 2 1 1 1 1 1 1 1 1 1 1 1 1
8 9 6 0 1 0 1 2 2 3 3 3 2 1 3 4 4 4 3 2 1 1 1 2 0 1 1 2 2 1 1 1 1 1 1 1 1 1 1 1 1 1 1 2
9 9 3 2 2 1 2 1 3 4 4 3 3 3 4 4 4 3 2 1 1 1 1 1 1 1 1 2 1 1 1 1 0 1 1 2 1 1 1 1 1 2 1 1
7 8 2 4 2 3 4 3 3 4 4 3 3 4 5 4 3 2 1 1 1 1 0 0 1 1 1 1 1 1 1 1 0 1 2 1 2 2 2 2 2 3 2 2
2 2 4 5 6 5 4 3 3 4 4 3 3 4 3 3 2 1 1 1 1 0 0 0 1 1 1 1 1 1 1 1 1 1 1 1 2 3 2 3 2 2 2 3
1 3 3 4 4 3 3 3 3 3 2 2 2 2 2 2 1 1 1 0 0 1 1 1 1 1 1 1 1 2 2 2 2 2 2 2 2 2 2 2 3 3 2 2
2 2 2 2 2 2 2 2 2 2 2 1 1 1 2 1 1 1 1 0 1 2 2 2 2 1 1 2 2 2 2 2 2 3 2 1 1 1 2 1 2 2 1 1
2 0 1 2 2 1 1 1 1 1 1 1 0 1 1 1 1 1 1 1 1 2 3 3 2 2 2 2 2 2 2 2 3 3 2 2 2 2 1 2 2 2 2 2
1 2 1 2 2 1 0 0 1 1 1 1 1 1 1 0 0 1 2 2 2 3 3 2 2 2 2 2 3 3 3 3 3 3 3 4 3 3 2 2 3 4 4 4
1 0 1 1 1 0 0 1 1 1 0 1 1 1 1 1 1 2 2 2 2 3 2 2 2 2 2 2 3 3 4 4 4 3 3 3 3 3 3 3 3 3 5 7
1 1 1 1 1 1 1 1 1 1 0 0 0 0 0 1 2 3 3 2 2 3 2 2 3 2 2 3 3 3 4 4 3 4 4 4 3 3 3 3 3 2 2 2
2 2 2 2 2 1 2 2 2 1 1 1 1 1 1 1 2 3 3 2 2 3 3 3 3 3 3 2 2 3 4 5 4 4 5 4 3 3 3 3 3 2 2 1
2 2 1 2 2 2 2 2 2 2 2 2 2 2 2 2 2 3 3 2 3 3 2 2 3 3 3 2 3 4 4 4 5 5 5 4 3 3 3 3 3 2 1 2
2 2 1 2 3 3 3 2 2 2 2 2 3 2 2 2 3 3 3 3 3 3 2 2 2 3 3 3 2 4 4 4 4 4 4 3 3 3 3 3 2 2 1 2
1 1 0 1 2 2 2 2 2 3 3 3 3 3 3 3 3 4 4 3 3 3 2 2 3 4 4 2 3 4 5 4 3 4 3 3 3 3 3 2 2 1 2 1
2 1 1 1 2 2 3 2 2 2 3 3 3 3 3 4 4 4 4 4 2 2 2 2 3 4 4 2 3 5 5 4 4 4 3 3 3 3 2 2 2 1 1 2
2 2 1 1 2 3 3 2 3 3 4 4 4 4 4 4 5 4 4 4 2 1 2 3 3 2 2 3 5 5 5 4 4 3 2 2 3 2 2 2 2 1 2 1
2 2 2 2 2 3 3 3 4 4 5 5 5 5 4 4 5 4 4 3 2 1 3 3 1 2 3 4 4 5 5 5 4 3 2 2 2 2 2 2 2 2 1 1
3 2 3 3 3 3 4 4 5 5 5 6 6 5 5 5 5 4 4 2 2 1 3 3 2 3 5 5 4 5 5 4 4 3 2 2 2 2 2 2 2 2 1 1
3 3 3 3 3 3 4 4 5 5 6 7 6 5 5 5 4 4 4 2 2 3 3 2 3 4 5 5 5 5 4 4 3 3 3 2 2 2 1 1 1 2 1 1
3 3 3 3 3 3 4 5 6 5 5 5 6 5 4 4 4 4 3 2 3 3 4 4 6 6 6 5 5 4 3 2 3 3 3 3 2 2 2 1 1 2 1 1
3 3 2 3 4 4 4 4 4 3 4 4 4 4 4 3 4 3 3 3 3 4 5 4 4 5 4 5 4 3 2 2 1 2 2 3 3 2 2 2 1 1 1 1
3 3 3 4 3 3 4 4 3 3 3 3 4 4 3 3 3 3 4 4 3 4 4 3 3 3 3 3 3 3 2 2 1 1 1 1 2 2 2 2 1 1 1 1
Wind_Direction
282 286 287 291 297 299 292 291 291 297 211 146 126 133 122 127 125 139 138 129 150 144 122 129 129 149 166 163 166 163 160 162 164 165 175 203 229 237 236 238 253 278 345 326
288 283 281 284 286 285 289 289 285 265 179 121 124 128 115 116 129 150 128 115 117 116 118 125 129 155 179 169 160 171 173 169 174 178 180 197 209 219 281 326 1 18 355 350
277 278 281 284 293 288 279 274 279 284 126 131 131 134 132 142 163 144 105 97 94 107 118 141 170 198 198 200 174 171 179 183 171 180 179 188 210 158 165 211 301 292 304 80
271 277 270 262 340 356 87 37 37 74 110 118 130 129 117 119 132 117 99 88 90 99 111 145 173 191 203 212 199 185 180 181 188 193 168 162 157 156 197 196 199 210 267 69
268 266 254 224 238 228 206 120 75 90 107 105 110 122 105 98 98 98 96 81 82 111 143 128 278 253 223 233 223 201 192 196 192 176 166 175 183 184 204 195 202 217 210 186
263 269 271 248 55 148 166 178 118 111 106 113 123 128 103 107 107 101 101 101 85 133 132 120 137 260 239 251 235 221 219 217 191 166 180 211 197 174 178 201 233 236 216 202
255 260 263 25 27 125 224 62 106 109 108 108 105 78 97 104 100 101 108 112 97 106 113 135 170 191 226 245 249 250 244 245 208 159 189 203 171 167 180 204 214 239 235 224
254 257 247 33 45 54 63 61 95 96 90 92 99 103 107 107 107 116 127 110 94 90 69 100 172 202 236 246 265 279 263 248 230 183 229 212 166 186 199 210 221 231 232 243
347 53 78 57 57 72 78 59 61 77 81 86 107 113 105 105 113 125 110 80 91 119 138 161 202 203 230 240 231 231 239 243 218 210 230 206 196 194 206 211 226 233 230 235
184 145 115 99 94 83 76 65 58 74 74 83 101 110 102 111 118 102 98 90 2 269 250 250 239 233 229 216 214 215 217 217 215 217 219 230 232 221 218 220 237 241 245 256
218 172 156 136 101 78 68 65 56 52 89 86 97 124 115 111 103 63 23 281 254 269 265 258 237 215 218 223 215 222 225 222 234 237 233 240 236 258 240 240 236 254 278 290
277 133 229 133 117 103 88 52 23 359 21 64 51 42 42 69 71 320 294 279 266 269 263 261 252 225 223 233 222 227 235 235 241 237 233 231 221 233 272 238 218 208 214 238
282 252 172 133 150 144 235 349 7 1 349 28 38 48 44 44 304 282 280 277 256 260 271 271 270 255 239 236 233 229 244 248 255 250 242 241 233 223 225 231 240 246 237 231
36 70 135 161 140 102 311 22 14 351 49 71 63 49 355 341 304 296 296 286 285 274 271 270 269 265 259 254 250 245 248 247 258 257 255 256 252 244 232 225 225 235 233 230
246 231 207 197 207 255 300 311 294 296 331 118 142 141 317 312 307 304 294 281 292 288 286 282 279 274 257 254 249 252 256 257 256 269 260 252 244 247 242 235 238 228 211 211
258 243 213 214 235 253 267 272 280 295 304 290 221 245 272 274 291 297 295 283 278 280 287 291 289 290 273 259 251 246 249 262 262 268 274 261 249 252 252 244 243 241 217 176
242 234 228 248 260 255 267 277 289 291 285 291 272 239 259 267 283 288 285 286 281 282 289 292 300 289 266 252 252 256 259 253 245 255 269 275 272 267 267 263 259 250 237 184
267 259 252 265 281 274 267 277 300 300 290 297 301 276 258 270 279 286 282 273 267 269 294 301 295 282 270 260 252 267 267 263 252 259 266 283 292 279 273 277 278 273 233 183
274 292 312 300 300 296 287 289 308 308 307 312 316 309 298 287 286 286 282 281 271 276 291 296 278 272 268 263 275 263 271 268 256 254 259 263 265 268 273 278 287 299 302 267
311 302 292 280 283 289 292 302 318 313 310 314 315 311 301 301 296 294 295 281 264 276 283 289 269 270 269 268 277 273 273 272 268 259 255 259 267 273 287 293 290 301 309 297
310 305 300 310 313 296 299 315 309 298 299 298 293 288 288 293 290 290 282 277 275 288 279 267 257 264 273 285 264 269 273 272 270 266 256 263 273 274 281 296 304 300 286 293
326 328 321 319 313 308 314 311 297 291 292 288 284 283 279 281 280 275 266 275 288 321 288 281 296 308 301 288 269 271 276 280 282 280 278 273 272 274 275 279 284 284 286 304
329 321 311 308 310 310 309 305 298 293 290 287 280 280 280 280 277 272 270 266 288 279 280 291 318 297 286 273 273 273 273 279 286 287 282 277 276 270 268 273 279 281 285 288
317 308 299 288 290 289 287 293 299 295 292 289 284 276 271 273 274 272 273 222 203 227 270 271 247 261 265 264 266 265 270 276 285 296 306 312 317 310 297 293 299 298 292 298
313 303 298 292 280 271 271 278 281 279 278 282 287 278 265 264 272 279 286 270 210 221 257 246 233 245 254 265 270 277 285 299 309 304 305 322 328 335 341 357 343 319 307 304
291 282 271 264 272 278 275 269 273 273 272 277 287 291 287 283 283 282 272 258 235 239 256 260 246 235 248 263 273 285 287 281 282 302 325 330 330 345 351 341 326 310 315 334
284 282 271 262 258 263 275 281 282 281 278 287 292 294 298 294 291 291 288 287 275 254 257 265 269 265 264 270 280 293 307 316 314 309 334 348 348 350 343 343 340 344 350 359